FW7007 Weather Reports


time (UTC)temp
C
wind
direction
speed
KPH
gust
KPH
rain 1hr
cm
rain 24hr
cm
rain mn
cm
humidity
%
barometer
mb
20260503230608 17 107 1.6 1.6 0.00 0.00 0.00 48 1017.7
20260503230104 17 93 0.0 1.6 0.00 0.00 0.00 47 1018.0
20260503225602 18 93 0.0 1.6 0.00 0.00 0.00 46 1017.9
20260503225056 18 97 0.0 0.0 0.00 0.00 0.00 45 1018.0
20260503224555 18 97 0.0 0.0 0.00 0.00 0.00 45 1017.9
20260503224052 18 101 0.0 1.6 0.00 0.00 0.00 43 1017.9
20260503223550 19 91 0.0 1.6 0.00 0.00 0.00 43 1018.0
20260503223045 19 90 0.0 1.6 0.00 0.00 0.00 41 1018.3
20260503222544 19 81 0.0 4.8 0.00 0.00 0.00 42 1018.1
20260503222041 19 87 0.0 3.2 0.00 0.00 0.00 42 1018.0
20260503221539 19 94 0.0 1.6 0.00 0.00 0.00 45 1018.1
20260503221036 19 110 1.6 3.2 0.00 0.00 0.00 42 1018.3
20260503220532 20 97 0.0 0.0 0.00 0.00 0.00 43 1018.3
20260503220029 20 96 1.6 1.6 0.00 0.00 0.00 45 1018.2
20260503215526 19 106 0.0 1.6 0.00 0.00 0.00 43 1018.4
20260503215023 19 97 1.6 1.6 0.00 0.00 0.00 41 1018.6
20260503214522 19 104 1.6 4.8 0.00 0.00 0.00 42 1018.6
20260503214018 19 88 1.6 1.6 0.00 0.00 0.00 41 1018.7
20260503213516 20 81 3.2 3.2 0.00 0.00 0.00 41 1018.5
20260503213013 19 108 1.6 1.6 0.00 0.00 0.00 40 1018.7
20260503212510 19 79 1.6 3.2 0.00 0.00 0.00 40 1018.9
20260503212008 19 55 3.2 4.8 0.00 0.00 0.00 40 1018.8
20260503211504 19 95 0.0 1.6 0.00 0.00 0.00 39 1018.7
20260503210954 18 64 3.2 4.8 0.00 0.00 0.00 40 1018.9
20260503210452 19 72 3.2 3.2 0.00 0.00 0.00 39 1018.9
20260503205951 19 84 0.0 3.2 0.00 0.00 0.00 41 1019.0
20260503205449 18 81 1.6 3.2 0.00 0.00 0.00 39 1019.3
20260503204945 19 107 1.6 3.2 0.00 0.00 0.00 42 1019.0
20260503204442 18 108 0.0 3.2 0.00 0.00 0.00 43 1019.1
20260503203933 18 78 3.2 3.2 0.00 0.00 0.00 40 1019.4
20260503203431 19 84 1.6 1.6 0.00 0.00 0.00 42 1019.1
20260503202928 18 79 1.6 9.7 0.00 0.00 0.00 41 1019.3
20260503202426 18 102 0.0 0.0 0.00 0.00 0.00 40 1019.3
20260503201924 18 83 0.0 4.8 0.00 0.00 0.00 38 1019.5
20260503201421 18 91 1.6 1.6 0.00 0.00 0.00 42 1019.5
20260503200918 19 68 4.8 9.7 0.00 0.00 0.00 41 1020.0
20260503200414 18 115 1.6 3.2 0.00 0.00 0.00 39 1019.9
20260503195911 19 82 0.0 1.6 0.00 0.00 0.00 42 1020.2
20260503195409 18 68 3.2 4.8 0.00 0.00 0.00 42 1020.0
20260503194905 18 57 3.2 3.2 0.00 0.00 0.00 42 1020.1
20260503194401 18 88 1.6 1.6 0.00 0.00 0.00 42 1020.1
20260503193857 18 24 1.6 3.2 0.00 0.00 0.00 39 1020.3
20260503193353 18 102 1.6 3.2 0.00 0.00 0.00 42 1020.4
20260503192849 18 95 0.0 3.2 0.00 0.00 0.00 45 1020.3
20260503192345 18 73 1.6 4.8 0.00 0.00 0.00 43 1020.6
20260503191841 18 79 1.6 3.2 0.00 0.00 0.00 43 1020.4
20260503191338 17 105 1.6 1.6 0.00 0.00 0.00 41 1020.6
20260503190835 18 67 3.2 4.8 0.00 0.00 0.00 43 1020.7
20260503190332 17 74 1.6 3.2 0.00 0.00 0.00 42 1020.6
20260503185829 18 112 1.6 3.2 0.00 0.00 0.00 43 1020.7
20260503185325 17 107 0.0 1.6 0.00 0.00 0.00 46 1020.9
20260503184820 17 98 0.0 1.6 0.00 0.00 0.00 46 1020.8
20260503184316 17 122 1.6 3.2 0.00 0.00 0.00 46 1020.9
20260503183812 17 102 1.6 3.2 0.00 0.00 0.00 43 1020.8
20260503183309 17 79 1.6 3.2 0.00 0.00 0.00 41 1021.1
20260503182807 17 103 1.6 8.0 0.00 0.00 0.00 44 1021.0
20260503182306 17 86 1.6 8.0 0.00 0.00 0.00 44 1021.2
20260503181803 17 112 1.6 3.2 0.00 0.00 0.00 45 1021.3
20260503181259 17 102 1.6 1.6 0.00 0.00 0.00 49 1021.0
20260503180755 17 117 1.6 3.2 0.00 0.00 0.00 44 1021.3
20260503180254 16 62 1.6 4.8 0.00 0.00 0.00 47 1021.5
20260503175750 16 115 1.6 3.2 0.00 0.00 0.00 50 1021.5
20260503175248 16 87 1.6 1.6 0.00 0.00 0.00 49 1021.5
20260503174744 16 66 1.6 3.2 0.00 0.00 0.00 47 1021.7
20260503174242 16 126 0.0 1.6 0.00 0.00 0.00 49 1021.8
20260503173742 16 158 3.2 3.2 0.00 0.00 0.00 45 1021.9
20260503173238 16 73 1.6 3.2 0.00 0.00 0.00 43 1022.0
20260503172735 16 95 0.0 1.6 0.00 0.00 0.00 45 1022.1
20260503172232 16 87 1.6 3.2 0.00 0.00 0.00 45 1022.1
20260503171729 16 71 1.6 3.2 0.00 0.00 0.00 45 1022.1
20260503171226 16 112 0.0 1.6 0.00 0.00 0.00 46 1022.0
20260503170723 16 118 1.6 3.2 0.00 0.00 0.00 46 1022.2
20260503170220 15 95 0.0 3.2 0.00 0.00 0.00 48 1022.2
20260503160141 13 67 3.2 3.2 0.00 0.00 0.00 47 1023.0
20260503150612 12 106 1.6 3.2 0.00 0.00 0.00 51 1023.2
20260503150108 12 134 1.6 3.2 0.00 0.00 0.00 49 1023.3
20260503131001 10 94 0.0 1.6 0.00 0.00 0.00 76 1023.3
20260503130459 9 103 0.0 3.2 0.00 0.00 0.00 76 1023.3
20260503110344 5 95 0.0 0.0 0.00 0.00 0.00 99 1021.9
20260503090224 6 95 0.0 0.0 0.00 0.00 0.00 96 1021.0
20260503081156 6 95 0.0 0.0 0.00 0.00 0.00 92 1020.6
20260503080652 6 95 0.0 0.0 0.00 0.00 0.00 92 1020.5
20260503080149 6 94 0.0 0.0 0.00 0.00 0.00 92 1020.5
20260503072626 6 101 0.0 0.0 0.00 0.00 0.00 91 1020.3
20260503072123 6 101 0.0 0.0 0.00 0.00 0.00 90 1019.9
20260503071620 6 101 0.0 0.0 0.00 0.00 0.00 89 1019.8
20260503071116 7 101 0.0 0.0 0.00 0.00 0.00 89 1019.9
20260503070614 7 101 0.0 0.0 0.00 0.00 0.00 89 1019.9
20260503070112 7 100 0.0 0.0 0.00 0.00 0.00 88 1020.0
20260503055032 8 96 0.0 0.0 0.00 0.00 0.00 83 1020.0
20260503054528 8 97 0.0 0.0 0.00 0.00 0.00 82 1019.8
20260503054025 8 104 0.0 0.0 0.00 0.00 0.00 82 1019.5
20260503053523 8 104 0.0 0.0 0.00 0.00 0.00 81 1019.6
20260503053021 8 106 0.0 0.0 0.00 0.00 0.00 82 1019.8
20260503052518 8 106 0.0 0.0 0.00 0.00 0.00 80 1019.5
20260503052014 8 106 0.0 0.0 0.00 0.00 0.00 80 1019.5
20260503051509 8 106 0.0 0.0 0.00 0.00 0.00 80 1019.6
20260503051007 9 106 0.0 0.0 0.00 0.00 0.00 80 1019.6
20260503050503 9 106 0.0 0.0 0.00 0.00 0.00 80 1019.6
20260503050000 8 106 0.0 0.0 0.00 0.00 0.00 79 1019.5
20260503045457 8 106 0.0 0.0 0.00 0.00 0.00 78 1019.4
20260503044954 8 107 0.0 0.0 0.00 0.00 0.00 79 1019.5
20260503044451 8 107 0.0 0.0 0.00 0.00 0.00 80 1019.6
20260503043949 8 107 0.0 0.0 0.00 0.00 0.00 79 1019.4
20260503043444 9 107 0.0 0.0 0.00 0.00 0.00 78 1019.5
20260503042941 9 107 0.0 0.0 0.00 0.00 0.00 76 1019.7
20260503042437 9 107 0.0 0.0 0.00 0.00 0.00 74 1019.5
20260503041935 10 107 0.0 0.0 0.00 0.00 0.00 73 1019.4
20260503041431 10 107 0.0 0.0 0.00 0.00 0.00 71 1019.5
20260503040929 10 107 0.0 0.0 0.00 0.00 0.00 71 1019.3
20260503040426 10 108 0.0 0.0 0.00 0.00 0.00 70 1019.1
20260503035923 10 108 0.0 0.0 0.00 0.00 0.00 71 1019.3
20260503035420 10 108 0.0 0.0 0.00 0.00 0.00 69 1019.4
20260503034917 10 108 0.0 0.0 0.00 0.00 0.00 68 1019.1
20260503034415 11 107 0.0 0.0 0.00 0.00 0.00 69 1018.9
20260503033912 11 107 0.0 0.0 0.00 0.00 0.00 68 1019.3
20260503033409 11 106 0.0 0.0 0.00 0.00 0.00 68 1019.1
20260503032907 11 107 0.0 0.0 0.00 0.00 0.00 66 1018.8
20260503032406 11 97 0.0 0.0 0.00 0.00 0.00 67 1019.0
20260503031903 11 96 0.0 0.0 0.00 0.00 0.00 66 1019.1
20260503031401 11 107 0.0 0.0 0.00 0.00 0.00 65 1019.1
20260503030857 11 109 1.6 1.6 0.00 0.00 0.00 65 1019.1
20260503030353 11 108 0.0 1.6 0.00 0.00 0.00 63 1019.1
20260503025850 11 86 1.6 3.2 0.00 0.00 0.00 62 1019.0
20260503025347 11 248 3.2 3.2 0.00 0.00 0.00 62 1019.3
20260503024844 11 103 1.6 4.8 0.00 0.00 0.00 62 1019.1
20260503024341 11 122 1.6 3.2 0.00 0.00 0.00 65 1018.9
20260503023837 11 106 1.6 3.2 0.00 0.00 0.00 64 1018.8
20260503023335 11 208 4.8 4.8 0.00 0.00 0.00 64 1018.7
20260503022831 11 130 1.6 3.2 0.00 0.00 0.00 65 1018.6
20260503022326 11 108 0.0 0.0 0.00 0.00 0.00 64 1018.7
20260503021823 12 108 0.0 0.0 0.00 0.00 0.00 66 1018.5
20260503021319 12 108 0.0 0.0 0.00 0.00 0.00 67 1018.6
20260503020817 12 107 0.0 0.0 0.00 0.00 0.00 66 1018.6
20260503020315 11 106 0.0 0.0 0.00 0.00 0.00 66 1018.5
20260503015810 11 105 0.0 0.0 0.00 0.00 0.00 67 1018.4
20260503015307 11 105 0.0 0.0 0.00 0.00 0.00 66 1018.4
20260503014803 11 105 0.0 0.0 0.00 0.00 0.00 66 1018.2
20260503014301 11 106 0.0 0.0 0.00 0.00 0.00 66 1018.2
20260503013758 11 106 0.0 0.0 0.00 0.00 0.00 66 1018.1
20260503013256 11 103 0.0 0.0 0.00 0.00 0.00 65 1017.7
20260503012753 11 103 0.0 0.0 0.00 0.00 0.00 65 1018.0
20260503012250 11 103 0.0 0.0 0.00 0.00 0.00 65 1017.7
20260503011747 11 98 0.0 0.0 0.00 0.00 0.00 67 1017.6
20260503011244 11 102 0.0 0.0 0.00 0.00 0.00 65 1017.5
20260503010740 11 102 0.0 0.0 0.00 0.00 0.00 66 1017.5
20260503010237 11 102 0.0 0.0 0.00 0.00 0.00 65 1017.5
20260503005734 11 102 0.0 0.0 0.00 0.00 0.00 65 1017.2
20260503005231 11 102 0.0 0.0 0.00 0.00 0.00 66 1017.5
20260503004727 11 102 0.0 0.0 0.00 0.00 0.00 65 1017.5
20260503004226 11 102 0.0 0.0 0.00 0.00 0.00 66 1017.2
20260503003723 11 102 0.0 0.0 0.00 0.00 0.00 67 1017.2
20260503003220 11 102 0.0 0.0 0.00 0.00 0.00 65 1017.1
20260503002716 12 102 0.0 0.0 0.00 0.00 0.00 66 1017.0
20260503002213 12 102 0.0 0.0 0.00 0.00 0.00 65 1017.2
20260503001709 12 102 0.0 0.0 0.00 0.00 0.00 63 1016.7
20260503001206 12 102 0.0 0.0 0.00 0.00 0.00 62 1016.7
20260503000704 13 103 0.0 0.0 0.00 0.00 0.00 60 1016.6
20260503000203 13 103 0.0 0.0 0.00 0.00 0.00 56 1016.4
20260502235658 13 103 0.0 0.0 0.00 0.00 0.00 55 1016.7
20260502235156 13 107 0.0 0.0 0.00 0.00 0.00 54 1016.7
20260502234651 13 108 0.0 3.2 0.00 0.00 0.00 51 1016.5
20260502234149 14 98 0.0 1.6 0.00 0.00 0.00 51 1016.5
20260502233645 14 114 0.0 0.0 0.00 0.00 0.00 51 1016.5
20260502233142 14 106 0.0 1.6 0.00 0.00 0.00 50 1016.4
20260502232637 14 111 1.6 1.6 0.00 0.00 0.00 51 1016.5
20260502232135 15 122 3.2 4.8 0.00 0.00 0.00 49 1016.3
20260502231626 15 106 0.0 3.2 0.00 0.00 0.00 49 1016.3
20260502231124 15 107 0.0 3.2 0.00 0.00 0.00 49 1016.4